This is the latest recevied weather packets stored in our database for station/object KJ5JYX. If no packets are shown the sender has not sent any weather packets the latest 10 day(s).
| Time | Temp. | Humidity | Pressure | Rain* | Wind** | Luminosity | Snow |
|---|---|---|---|---|---|---|---|
| 1777577627 | 18.89° C | 99% | 1013 hPa | 0 mm | - | 54 W/m² | - |
| 1777577325 | 18.89° C | 99% | 1013 hPa | 0 mm | - | 52 W/m² | - |
| 1777577020 | 18.89° C | 99% | 1012.8 hPa | 0 mm | - | 84 W/m² | - |
| 1777576718 | 18.33° C | 99% | 1013 hPa | 0 mm | - | 56 W/m² | - |
| 1777576416 | 18.89° C | 99% | 1013 hPa | 0 mm | - | 101 W/m² | - |
| 1777576114 | 18.89° C | 99% | 1013.1 hPa | 0 mm | - | 163 W/m² | - |
| 1777575808 | 18.89° C | 99% | 1013.2 hPa | 0 mm | - | 238 W/m² | - |
| 1777575506 | 18.33° C | 99% | 1013 hPa | 0 mm | - | 277 W/m² | - |
| 1777575201 | 18.89° C | 99% | 1013 hPa | 0 mm | - | 234 W/m² | - |
| 1777574897 | 18.89° C | 99% | 1013.3 hPa | 0 mm | - | 248 W/m² | - |
| 1777574595 | 18.33° C | 99% | 1013.2 hPa | 0 mm | - | 472 W/m² | - |
| 1777574290 | 17.78° C | 99% | 1013.6 hPa | 0 mm | - | 248 W/m² | - |
| 1777573986 | 17.78° C | 99% | 1013.6 hPa | 0 mm | - | 196 W/m² | - |
| 1777573681 | 17.78° C | 99% | 1014 hPa | 0 mm | - | 204 W/m² | - |
| 1777573378 | 17.78° C | 99% | 1014.4 hPa | 0 mm | - | 144 W/m² | - |
| 1777573073 | 17.78° C | 99% | 1013.9 hPa | 0 mm | - | 391 W/m² | - |
| 1777572771 | 17.22° C | 99% | 1014.1 hPa | 1.78 mm | - | 243 W/m² | - |
| 1777572465 | 16.67° C | 99% | 1014.1 hPa | 4.83 mm | - | 94 W/m² | - |
| 1777572161 | 16.67° C | 99% | 1014.4 hPa | 7.11 mm | - | 32 W/m² | - |
| 1777571857 | 16.67° C | 99% | 1013.4 hPa | 10.67 mm | - | 20 W/m² | - |
| 1777571553 | 16.67° C | 99% | 1014.6 hPa | 14.99 mm | - | 12 W/m² | - |
| 1777571249 | 16.67° C | 98% | 1015.3 hPa | 19.81 mm | - | 9 W/m² | - |
| 1777570945 | 16.67° C | 98% | 1015.1 hPa | 28.7 mm | - | 8 W/m² | - |
| 1777570641 | 16.67° C | 98% | 1014.1 hPa | 62.48 mm | - | 10 W/m² | - |
| 1777570338 | 16.67° C | 97% | 1014.3 hPa | 51.56 mm | - | 8 W/m² | - |
* Rain latest hour (hover to see other rain measurements)
** Current wind speed in m/s (hover to see current wind gust speed)